Location: Sternwarte auf dem Internationalen Platz Vogelsang IP
(50.5721°N, 6.4398°E)
Time: 18:28:14
(UTC+01:00)

Transit 2A Rocket - Pass Details

Date: 13 December 2025
Orbit: 581 x 903 km, 66.7° (Epoch: 15 January)

Event Time Altitude Azimuth Distance (km) Brightness Sun altitude
Rises 13:21:37 0° 301° (WNW) 3,486 8.2 15.3°
Reaches altitude 10° 13:25:05 10° 321° (NW) 2,575 7.4 15.2°
Maximum altitude 13:28:54 17° 1° (N) 2,128 6.8 15.0°
Drops below altitude 10° 13:32:45 10° 40° (NE) 2,587 7.2 14.9°
Sets 13:36:15 0° 61° (ENE) 3,509 8.0 14.7°
